Date,Time,Wetness (Wet Dry or Ice),Wind Speed (m/s),Temperature (C),Humidity (%),Pressure (mb),Radiation (W/m^2)
2021-05-17,00:35:00,DRY,1.65,15.30,20.0,778.00,1.1
2021-05-17,00:40:00,DRY,3.00,15.37,19.3,777.67,0.8
2021-05-17,00:45:00,DRY,1.20,15.45,20.0,778.00,1.8
2021-05-17,00:50:00,DRY,2.40,15.40,19.7,777.67,1.2
2021-05-17,00:55:00,DRY,0.95,15.40,20.0,778.00,0.8
2021-05-17,01:00:00,DRY,1.40,15.33,19.7,777.33,0.3
2021-05-17,01:05:00,DRY,2.25,15.25,20.0,777.00,1.2
2021-05-17,01:10:00,DRY,3.20,15.20,19.3,777.00,1.1
2021-05-17,01:15:00,DRY,2.15,15.30,19.0,777.00,1.8
2021-05-17,01:20:00,DRY,2.70,15.30,18.7,777.00,1.6
2021-05-17,01:25:00,DRY,2.45,15.50,18.0,777.00,0.8
2021-05-17,01:30:00,DRY,5.03,15.47,19.0,777.00,1.2
2021-05-17,01:35:00,DRY,5.15,15.60,19.0,777.00,1.5
2021-05-17,01:40:00,DRY,3.43,15.43,18.7,777.00,1.3
2021-05-17,01:45:00,DRY,1.85,15.35,19.0,777.00,0.9
2021-05-17,01:50:00,DRY,4.47,15.50,18.3,777.00,1.3
2021-05-17,01:55:00,DRY,3.90,15.55,19.0,777.00,1.5
2021-05-17,02:00:00,DRY,3.97,15.43,19.0,777.00,1.0
2021-05-17,02:05:00,DRY,3.65,15.55,19.5,777.00,1.6
2021-05-17,02:10:00,DRY,4.80,15.40,19.3,777.00,1.0
2021-05-17,02:15:00,DRY,3.40,15.25,19.5,777.00,0.8
2021-05-17,02:20:00,DRY,3.27,15.20,19.3,777.00,0.8
2021-05-17,02:25:00,DRY,3.65,15.15,20.0,777.00,0.8
2021-05-17,02:30:00,DRY,4.80,15.20,19.7,777.00,1.4
2021-05-17,02:35:00,DRY,4.85,15.30,19.0,777.00,1.1
2021-05-17,02:40:00,DRY,4.37,15.37,19.7,777.00,1.6
2021-05-17,02:45:00,DRY,5.15,15.45,19.5,777.00,1.2
2021-05-17,02:50:00,DRY,4.27,15.27,20.0,777.00,1.1
2021-05-17,02:55:00,DRY,4.15,15.25,18.5,777.00,1.4
2021-05-17,03:00:00,DRY,5.47,15.30,18.3,777.00,0.5
2021-05-17,03:05:00,DRY,5.15,15.30,19.5,777.00,1.3
2021-05-17,03:10:00,DRY,4.87,15.37,19.3,777.00,1.3
2021-05-17,03:15:00,DRY,5.90,15.30,19.5,777.00,1.1
2021-05-17,03:20:00,DRY,5.93,15.27,19.7,777.00,1.3
2021-05-17,03:25:00,DRY,5.05,15.25,20.0,777.00,1.2
2021-05-17,03:30:00,DRY,5.90,15.13,20.3,776.67,1.0
2021-05-17,03:35:00,DRY,6.20,14.95,19.5,776.50,0.8
2021-05-17,03:40:00,DRY,5.80,14.90,20.0,776.33,1.1
2021-05-17,03:45:00,DRY,4.35,14.90,20.0,777.00,1.2
2021-05-17,03:50:00,DRY,4.33,14.83,19.7,777.00,1.2
2021-05-17,03:55:00,DRY,5.20,14.70,19.5,776.50,1.1
2021-05-17,04:00:00,DRY,4.83,14.67,20.0,776.67,1.4
2021-05-17,04:05:00,DRY,3.50,14.65,19.5,777.00,1.4
2021-05-17,04:10:00,DRY,4.03,14.53,19.3,776.67,1.3
2021-05-17,04:15:00,DRY,4.35,14.35,20.0,777.00,1.1
2021-05-17,04:20:00,DRY,4.43,14.57,19.0,776.00,1.0
2021-05-17,04:25:00,DRY,4.55,14.40,17.0,776.50,1.0
2021-05-17,04:30:00,DRY,4.00,14.30,16.3,776.33,0.9
2021-05-17,04:35:00,DRY,4.70,14.60,16.5,776.50,1.1
2021-05-17,04:40:00,DRY,5.13,14.60,17.0,776.00,1.0
2021-05-17,04:45:00,DRY,5.55,14.60,16.5,776.50,1.1
2021-05-17,04:50:00,DRY,6.23,14.73,17.0,776.33,1.1
2021-05-17,04:55:00,DRY,5.45,14.90,18.0,776.50,0.9
2021-05-17,05:00:00,DRY,5.80,14.90,16.7,776.67,1.2
2021-05-17,05:05:00,DRY,4.70,14.70,18.0,776.00,1.1
2021-05-17,05:10:00,DRY,4.50,14.67,16.3,776.00,0.8
2021-05-17,05:15:00,DRY,3.15,14.80,18.0,776.00,1.5
2021-05-17,05:20:00,DRY,3.87,14.67,17.3,776.00,1.2
2021-05-17,05:25:00,DRY,4.70,14.65,17.0,776.00,1.1
2021-05-17,05:30:00,DRY,3.53,14.77,17.7,776.00,0.6
2021-05-17,05:35:00,DRY,3.85,14.65,17.5,776.50,1.1
2021-05-17,05:40:00,DRY,3.50,14.67,18.0,777.00,1.1
2021-05-17,05:45:00,DRY,4.60,14.70,17.0,777.00,2.2
2021-05-17,05:50:00,DRY,5.00,14.67,17.7,777.00,1.3
2021-05-17,05:55:00,DRY,3.50,14.80,16.0,777.00,1.2
2021-05-17,06:00:00,DRY,4.83,14.70,17.7,777.00,1.6
2021-05-17,06:05:00,DRY,7.20,14.70,17.0,777.00,1.6
2021-05-17,06:10:00,DRY,4.03,14.73,16.0,777.00,2.9
2021-05-17,06:15:00,DRY,4.85,14.60,16.5,777.00,5.6
2021-05-17,06:20:00,DRY,4.10,14.57,17.3,777.00,5.7
2021-05-17,06:25:00,DRY,3.70,14.55,16.5,777.00,6.6
2021-05-17,06:30:00,DRY,3.53,14.47,16.0,777.00,9.6
2021-05-17,06:35:00,DRY,5.25,14.70,17.0,777.00,16.1
2021-05-17,06:40:00,DRY,5.03,14.70,16.0,777.00,23.7
2021-05-17,06:45:00,DRY,5.20,14.85,18.0,777.00,30.7
2021-05-17,06:50:00,DRY,4.63,14.70,15.7,777.00,38.2
2021-05-17,06:55:00,DRY,6.15,14.70,14.0,777.00,45.5
2021-05-17,07:00:00,DRY,4.57,14.47,15.0,777.00,59.4
2021-05-17,07:05:00,DRY,4.70,14.40,15.0,777.00,83.5
2021-05-17,07:10:00,DRY,3.93,14.73,16.0,777.00,124.3
2021-05-17,07:15:00,DRY,3.15,14.70,16.0,777.00,177.4
2021-05-17,07:20:00,DRY,4.37,14.73,14.0,777.00,226.0
2021-05-17,07:25:00,DRY,3.50,15.00,14.0,777.00,248.9
2021-05-17,07:30:00,DRY,4.43,15.03,14.0,777.00,233.1
2021-05-17,07:35:00,DRY,3.85,14.95,13.5,777.00,228.3
2021-05-17,07:40:00,DRY,5.10,15.07,13.0,777.00,210.7
2021-05-17,07:45:00,DRY,4.70,14.95,13.5,777.00,242.1
2021-05-17,07:50:00,DRY,4.40,14.90,12.7,777.00,198.6
2021-05-17,07:55:00,DRY,2.40,14.55,12.0,777.00,131.5
2021-05-17,08:00:00,DRY,4.70,14.47,13.0,777.00,133.6
2021-05-17,08:05:00,DRY,4.80,14.30,12.0,777.00,135.0
2021-05-17,08:10:00,DRY,2.57,14.30,12.3,777.00,145.2
2021-05-17,08:15:00,DRY,2.95,14.60,14.0,777.00,156.3
2021-05-17,08:20:00,DRY,3.37,14.57,12.0,777.33,158.2
2021-05-17,08:25:00,DRY,2.90,14.50,12.0,777.50,148.2
2021-05-17,08:30:00,DRY,5.00,14.53,12.0,778.00,139.4
2021-05-17,08:35:00,DRY,3.55,14.55,11.5,778.00,137.8
2021-05-17,08:40:00,DRY,5.33,14.47,11.7,778.00,140.7
2021-05-17,08:45:00,DRY,3.80,14.45,12.0,778.00,143.9
2021-05-17,08:50:00,DRY,3.83,14.60,12.3,778.00,153.1
2021-05-17,08:55:00,DRY,5.45,14.60,12.0,778.00,177.6
2021-05-17,09:00:00,DRY,4.33,14.67,12.7,778.00,206.5
2021-05-17,09:05:00,DRY,5.15,14.85,12.5,778.00,226.8
2021-05-17,09:10:00,DRY,6.23,14.87,13.3,778.00,249.7
2021-05-17,09:15:00,DRY,5.25,14.95,13.5,778.00,264.1
2021-05-17,09:20:00,DRY,5.37,15.00,12.7,778.00,458.7
2021-05-17,09:25:00,DRY,7.90,15.35,12.0,778.00,645.1
2021-05-17,09:30:00,DRY,5.27,15.80,13.0,778.00,793.5
2021-05-17,09:35:00,DRY,3.75,16.10,13.0,778.00,894.5
2021-05-17,09:40:00,DRY,3.63,16.30,13.3,778.00,788.9
2021-05-17,09:45:00,DRY,2.95,16.35,13.5,778.00,610.0
2021-05-17,09:50:00,DRY,5.83,15.97,14.3,778.00,649.0
2021-05-17,09:55:00,DRY,8.20,15.90,14.0,778.00,609.8
2021-05-17,10:00:00,DRY,3.77,15.87,14.0,778.00,425.4
2021-05-17,10:05:00,DRY,2.75,15.95,13.5,778.00,376.1
2021-05-17,10:10:00,DRY,8.00,15.73,14.0,778.00,372.4
2021-05-17,10:15:00,DRY,4.55,15.60,14.5,778.00,464.9
2021-05-17,10:20:00,DRY,4.67,15.77,13.7,778.00,636.0
2021-05-17,10:25:00,DRY,3.20,16.05,13.5,778.00,919.6
2021-05-17,10:30:00,DRY,4.97,16.37,13.0,778.00,1101.4
2021-05-17,10:35:00,DRY,7.55,16.80,13.5,778.00,897.5
2021-05-17,10:40:00,DRY,3.23,16.33,13.3,778.00,575.1
2021-05-17,10:45:00,DRY,5.10,16.15,13.5,778.00,923.0
2021-05-17,10:50:00,DRY,3.83,16.27,14.0,778.00,838.3
2021-05-17,10:55:00,DRY,6.60,16.15,12.5,778.00,795.9
2021-05-17,11:00:00,DRY,4.53,16.03,13.3,778.00,486.7
2021-05-17,11:05:00,DRY,5.80,16.10,13.0,778.00,408.6
2021-05-17,11:10:00,DRY,5.07,15.90,13.7,778.00,374.8
2021-05-17,11:15:00,DRY,6.55,15.90,14.0,778.00,408.0
2021-05-17,11:20:00,DRY,5.37,16.03,15.0,778.00,466.2
2021-05-17,11:25:00,DRY,3.85,16.30,15.0,778.00,823.5
2021-05-17,11:30:00,DRY,3.47,16.57,15.0,778.00,643.3
2021-05-17,11:35:00,DRY,2.40,16.25,15.5,778.00,513.8
2021-05-17,11:40:00,DRY,4.43,16.37,15.3,778.00,544.1
2021-05-17,11:45:00,DRY,4.10,16.35,15.0,778.00,512.2
2021-05-17,11:50:00,DRY,1.65,16.20,15.0,778.00,516.1
2021-05-17,11:55:00,DRY,2.40,16.05,15.5,778.00,753.9
2021-05-17,12:00:00,DRY,2.63,16.30,15.7,778.00,793.4
2021-05-17,12:05:00,DRY,1.55,16.50,15.5,778.00,755.2
2021-05-17,12:10:00,DRY,2.83,16.27,17.3,778.00,523.7
2021-05-17,12:15:00,DRY,2.95,16.70,16.5,778.00,783.5
2021-05-17,12:20:00,DRY,1.87,16.90,16.3,778.00,1111.2
2021-05-17,12:25:00,DRY,1.80,17.10,17.0,778.00,669.4
2021-05-17,12:30:00,DRY,2.03,16.80,17.0,778.00,994.2
2021-05-17,12:35:00,DRY,1.50,16.80,18.5,778.00,951.5
2021-05-17,12:40:00,DRY,2.40,16.83,18.7,778.00,1096.1
2021-05-17,12:45:00,DRY,2.25,16.65,20.0,778.00,1005.4
2021-05-17,12:50:00,DRY,2.40,16.70,19.7,778.00,749.6
2021-05-17,12:55:00,DRY,2.60,17.05,17.5,778.00,567.9
2021-05-17,13:00:00,DRY,2.70,16.50,22.5,778.00,631.5
2021-05-17,13:05:00,DRY,1.25,16.35,22.0,778.00,566.0
2021-05-17,13:10:00,DRY,1.47,16.80,19.7,778.00,566.2
2021-05-17,13:15:00,DRY,2.30,16.25,17.5,778.00,632.3
2021-05-17,13:20:00,DRY,3.17,16.43,17.3,778.00,633.4
2021-05-17,13:25:00,DRY,3.30,16.55,19.5,778.00,676.1
2021-05-17,13:30:00,DRY,3.80,16.70,18.5,778.00,703.8
2021-05-17,13:35:00,DRY,5.30,16.80,19.0,778.00,1195.9
2021-05-17,13:40:00,DRY,3.97,17.27,18.3,778.00,1153.1
2021-05-17,13:45:00,DRY,1.45,17.05,18.5,778.00,630.3
2021-05-17,13:50:00,DRY,2.30,16.97,19.0,778.00,918.4
2021-05-17,13:55:00,DRY,0.50,17.85,18.0,778.00,620.2
2021-05-17,14:00:00,DRY,2.23,17.40,18.0,778.00,602.6
2021-05-17,14:05:00,DRY,5.70,16.85,18.0,778.00,504.4
2021-05-17,14:10:00,DRY,3.80,16.60,18.7,778.00,415.4
2021-05-17,14:15:00,DRY,1.40,16.45,19.5,778.00,409.0
2021-05-17,14:20:00,DRY,1.60,16.70,19.0,778.00,635.9
2021-05-17,14:25:00,DRY,2.90,17.25,19.0,778.00,770.5
2021-05-17,14:30:00,DRY,1.57,17.43,17.7,778.00,651.4
2021-05-17,14:35:00,DRY,2.70,17.20,19.0,778.00,570.9
2021-05-17,14:40:00,DRY,2.50,17.10,19.0,778.00,634.1
2021-05-17,14:45:00,DRY,2.75,17.05,17.5,778.00,688.4
2021-05-17,14:50:00,DRY,3.03,16.93,20.3,778.00,595.5
2021-05-17,14:55:00,DRY,1.60,16.75,20.0,778.00,585.6
2021-05-17,15:00:00,DRY,1.47,16.70,19.3,778.00,430.6
2021-05-17,15:05:00,DRY,1.95,17.10,19.0,778.00,396.7
2021-05-17,15:10:00,DRY,3.07,16.47,21.0,778.00,426.3
2021-05-17,15:15:00,DRY,2.10,16.85,18.0,778.00,566.2
2021-05-17,15:20:00,DRY,2.70,16.80,20.3,778.00,652.5
2021-05-17,15:25:00,DRY,2.15,16.60,23.0,778.00,552.9
2021-05-17,15:30:00,DRY,1.57,16.73,24.0,778.00,471.9
2021-05-17,15:35:00,DRY,0.90,17.10,18.0,778.00,447.9
2021-05-17,15:40:00,DRY,3.20,17.20,18.0,778.00,468.0
2021-05-17,15:45:00,DRY,2.00,17.35,17.5,778.00,426.5
2021-05-17,15:50:00,DRY,3.53,17.27,17.3,777.33,515.1
2021-05-17,15:55:00,DRY,3.95,17.65,18.5,777.50,829.7
2021-05-17,16:00:00,DRY,1.80,17.90,17.3,777.33,835.6
2021-05-17,16:05:00,DRY,1.15,18.10,15.0,777.00,645.3
2021-05-17,16:10:00,DRY,2.30,17.90,17.3,777.33,630.9
2021-05-17,16:15:00,DRY,2.45,17.95,16.0,777.50,707.6
2021-05-17,16:20:00,DRY,2.73,17.73,16.7,777.33,778.9
2021-05-17,16:25:00,DRY,0.90,17.35,16.0,777.50,770.2
2021-05-17,16:30:00,DRY,1.83,18.03,16.0,777.33,521.3
2021-05-17,16:35:00,DRY,3.20,17.95,15.5,777.00,553.5
2021-05-17,16:40:00,DRY,1.63,18.03,16.0,777.67,746.3
2021-05-17,16:45:00,DRY,2.65,17.65,16.0,777.50,633.5
2021-05-17,16:50:00,DRY,2.83,17.47,15.7,778.00,596.4
2021-05-17,16:55:00,DRY,4.45,16.85,16.0,778.00,589.2
2021-05-17,17:00:00,DRY,2.77,16.90,17.3,778.00,607.4
2021-05-17,17:05:00,DRY,2.60,16.45,19.0,778.00,542.2
2021-05-17,17:10:00,DRY,5.47,16.37,15.7,777.33,605.1
2021-05-17,17:15:00,DRY,2.35,16.65,14.5,777.00,637.5
2021-05-17,17:20:00,DRY,3.67,16.57,15.7,777.33,595.3
2021-05-17,17:25:00,DRY,2.35,16.45,14.0,777.50,492.0
2021-05-17,17:30:00,DRY,3.23,16.63,14.7,777.33,591.2
2021-05-17,17:35:00,DRY,2.35,16.75,14.5,777.00,558.6
2021-05-17,17:40:00,DRY,3.63,17.23,14.3,777.00,480.7
2021-05-17,17:45:00,DRY,3.85,16.85,13.5,777.00,417.1
2021-05-17,17:50:00,DRY,3.00,17.20,14.3,777.00,352.8
2021-05-17,17:55:00,DRY,2.55,16.90,14.5,777.00,268.6
2021-05-17,18:00:00,DRY,2.10,16.50,15.0,777.33,230.3
2021-05-17,18:05:00,DRY,3.60,16.00,15.0,777.00,199.9
2021-05-17,18:10:00,DRY,4.43,15.90,15.3,777.67,254.5
2021-05-17,18:15:00,DRY,5.00,15.95,14.5,777.50,245.5
2021-05-17,18:20:00,DRY,5.70,15.90,15.0,777.33,193.5
2021-05-17,18:25:00,DRY,4.20,15.75,15.5,777.50,160.6
2021-05-17,18:30:00,DRY,2.27,15.77,15.0,777.67,179.3
2021-05-17,18:35:00,DRY,1.15,15.80,15.0,777.00,187.3
2021-05-17,18:40:00,DRY,4.30,16.00,15.0,777.00,162.5
2021-05-17,18:45:00,DRY,4.20,16.05,15.0,777.50,143.0
2021-05-17,18:50:00,DRY,3.67,15.97,14.3,778.00,136.5
2021-05-17,18:55:00,DRY,1.00,15.95,14.5,778.00,123.5
2021-05-17,19:00:00,DRY,3.13,15.87,15.0,778.00,112.8
2021-05-17,19:05:00,DRY,2.80,15.80,15.0,778.00,97.2
2021-05-17,19:10:00,DRY,2.37,15.83,15.7,778.00,85.4
2021-05-17,19:15:00,DRY,2.25,15.75,15.0,778.00,73.5
2021-05-17,19:20:00,DRY,2.37,15.77,15.0,778.00,60.1
2021-05-17,19:25:00,DRY,1.85,15.65,16.0,778.00,47.2
2021-05-17,19:30:00,DRY,1.50,15.53,15.0,778.00,36.5
2021-05-17,19:35:00,DRY,3.00,15.55,16.0,778.00,26.7
2021-05-17,19:40:00,DRY,3.60,15.53,15.0,778.00,18.5
2021-05-17,19:45:00,DRY,2.45,15.60,16.0,778.00,13.1
2021-05-17,19:50:00,DRY,2.97,15.53,14.7,778.00,9.3
2021-05-17,19:55:00,DRY,4.25,15.45,14.5,778.00,6.5
2021-05-17,20:00:00,DRY,2.43,15.47,14.3,778.00,4.8
2021-05-17,20:05:00,DRY,1.90,15.40,14.5,778.00,2.5
2021-05-17,20:10:00,DRY,4.07,15.37,14.3,778.00,2.1
2021-05-17,20:15:00,DRY,3.50,15.35,14.0,778.00,2.0
2021-05-17,20:20:00,DRY,1.93,15.30,14.0,778.00,1.1
2021-05-17,20:25:00,DRY,2.95,15.30,13.5,778.00,1.1
2021-05-17,20:30:00,DRY,2.47,15.20,14.0,778.00,1.4
2021-05-17,20:35:00,DRY,2.25,15.15,13.0,778.00,0.7
2021-05-17,20:40:00,DRY,1.77,15.10,13.7,778.00,1.6
2021-05-17,20:45:00,DRY,2.00,15.10,14.0,778.00,1.5
2021-05-17,20:50:00,DRY,2.27,15.27,13.3,778.00,1.1
2021-05-17,20:55:00,DRY,2.05,15.10,13.5,778.00,1.5
2021-05-17,21:00:00,DRY,3.40,15.07,14.3,778.00,1.1
2021-05-17,21:05:00,DRY,1.70,15.00,13.5,778.00,1.3
2021-05-17,21:10:00,DRY,4.20,15.10,13.3,778.00,1.1
2021-05-17,21:15:00,DRY,2.45,15.10,13.5,778.00,0.5
2021-05-17,21:20:00,DRY,3.73,15.17,14.3,778.00,0.9
2021-05-17,21:25:00,DRY,1.40,15.10,13.5,778.00,1.6
2021-05-17,21:30:00,DRY,4.00,15.03,13.3,778.00,1.2
2021-05-17,21:35:00,DRY,2.25,14.75,12.5,778.00,1.1
2021-05-17,21:40:00,DRY,2.23,14.70,13.0,778.00,1.0
2021-05-17,21:45:00,DRY,2.45,14.80,14.0,778.00,1.8
2021-05-17,21:50:00,DRY,1.17,14.83,14.0,778.33,1.2
2021-05-17,21:55:00,DRY,2.05,14.90,14.0,778.50,1.2
2021-05-17,22:00:00,DRY,1.17,14.77,14.3,779.00,1.2
2021-05-17,22:05:00,DRY,1.40,14.70,14.5,779.00,0.9
2021-05-17,22:10:00,DRY,1.83,14.83,14.3,779.00,1.4
2021-05-17,22:15:00,DRY,2.55,14.60,13.5,779.00,1.6
2021-05-17,22:20:00,DRY,2.33,14.47,14.7,779.00,1.2
2021-05-17,22:25:00,DRY,1.80,14.45,15.0,779.00,2.0
2021-05-17,22:30:00,DRY,2.70,14.63,15.7,779.00,0.6
2021-05-17,22:35:00,DRY,2.25,14.70,15.0,779.00,1.2
2021-05-17,22:40:00,DRY,1.97,14.77,16.0,779.00,1.1
2021-05-17,22:45:00,DRY,1.75,14.70,17.0,779.00,1.1
2021-05-17,22:50:00,DRY,0.83,14.63,16.7,779.00,1.9
2021-05-17,22:55:00,DRY,1.95,14.75,16.5,779.00,1.9
2021-05-17,23:00:00,DRY,1.77,14.77,17.0,779.00,1.4
2021-05-17,23:05:00,DRY,0.60,14.85,17.0,779.00,1.1
2021-05-17,23:10:00,DRY,1.50,14.63,17.3,779.00,1.0
2021-05-17,23:15:00,DRY,1.60,14.70,17.5,779.00,1.5
2021-05-17,23:20:00,DRY,1.63,14.70,18.0,779.00,1.7
2021-05-17,23:25:00,DRY,0.80,14.85,18.0,779.00,0.5
2021-05-17,23:30:00,DRY,1.50,14.73,18.3,779.00,1.9
2021-05-17,23:35:00,DRY,1.65,14.70,18.0,779.00,2.3
2021-05-17,23:40:00,DRY,1.23,14.77,18.3,779.00,1.2
2021-05-17,23:45:00,DRY,1.65,14.75,18.0,779.00,1.3
2021-05-17,23:50:00,DRY,1.17,14.73,18.3,779.00,1.4
2021-05-17,23:55:00,DRY,2.05,14.70,18.5,779.00,0.6
2021-05-18,00:00:00,DRY,2.17,14.60,17.3,779.00,0.8
2021-05-18,00:05:00,DRY,0.85,14.55,18.0,779.00,1.3
2021-05-18,00:10:00,DRY,1.87,14.67,18.3,779.00,0.8
2021-05-18,00:15:00,DRY,3.50,14.90,17.5,779.00,1.2
2021-05-18,00:20:00,DRY,1.17,14.67,17.7,779.00,0.9
2021-05-18,00:25:00,DRY,0.50,14.75,17.5,779.00,2.0
2021-05-18,00:30:00,DRY,2.30,14.77,17.7,779.00,1.1
2021-05-18,00:35:00,DRY,0.95,14.80,17.5,779.00,0.9
2021-05-18,00:40:00,DRY,1.83,14.60,17.7,779.00,1.3
2021-05-18,00:45:00,DRY,1.80,14.60,18.0,779.00,1.1
2021-05-18,00:50:00,DRY,2.43,14.67,17.3,779.00,1.1
2021-05-18,00:55:00,DRY,1.65,14.55,17.5,779.00,1.1
2021-05-18,01:00:00,DRY,2.50,14.83,18.3,779.00,0.9
2021-05-18,01:05:00,DRY,3.40,14.55,18.5,778.50,1.4
2021-05-18,01:10:00,DRY,2.73,14.17,18.7,778.67,1.0
2021-05-18,01:15:00,DRY,2.55,14.45,18.0,779.00,0.6
2021-05-18,01:20:00,DRY,2.07,14.67,18.3,778.67,0.7
2021-05-18,01:25:00,DRY,3.80,14.40,18.0,778.50,1.1
2021-05-18,01:30:00,DRY,3.80,14.83,17.7,778.67,1.7
2021-05-18,01:35:00,DRY,3.05,15.05,18.0,778.50,1.4
2021-05-18,01:40:00,DRY,2.57,14.77,18.0,778.33,0.8
2021-05-18,01:45:00,DRY,3.55,14.60,18.0,778.00,1.2
2021-05-18,01:50:00,DRY,3.57,14.80,18.3,778.00,1.2
2021-05-18,01:55:00,DRY,2.85,14.85,18.0,778.00,0.8
2021-05-18,02:00:00,DRY,3.73,15.07,18.0,778.00,1.1
2021-05-18,02:05:00,DRY,3.05,15.25,18.5,778.00,1.5
2021-05-18,02:10:00,DRY,2.70,14.90,17.7,778.00,1.6
2021-05-18,02:15:00,DRY,2.85,15.05,17.0,778.00,1.2
2021-05-18,02:20:00,DRY,2.30,15.17,17.3,778.00,1.2
2021-05-18,02:25:00,DRY,1.85,15.15,18.0,778.00,1.4
2021-05-18,02:30:00,DRY,1.97,15.20,18.0,778.00,2.2
2021-05-18,02:35:00,DRY,3.40,15.20,17.0,778.00,0.9
2021-05-18,02:40:00,DRY,2.77,15.23,17.7,778.00,0.7
2021-05-18,02:45:00,DRY,2.45,15.60,17.0,778.00,2.0
2021-05-18,02:50:00,DRY,2.30,15.43,17.3,778.00,1.3
2021-05-18,02:55:00,DRY,2.85,15.25,17.5,778.00,0.7
2021-05-18,03:00:00,DRY,2.33,15.10,17.7,778.00,1.1
2021-05-18,03:05:00,DRY,2.80,15.35,18.0,778.00,1.5
2021-05-18,03:10:00,DRY,2.17,15.13,17.0,778.00,0.9
2021-05-18,03:15:00,DRY,2.60,14.80,17.0,778.00,1.0
2021-05-18,03:20:00,DRY,2.23,14.80,17.7,778.00,1.8
2021-05-18,03:25:00,DRY,2.15,14.75,17.5,778.00,0.8
2021-05-18,03:30:00,DRY,2.60,14.60,18.0,778.00,1.3
2021-05-18,03:35:00,DRY,1.15,14.85,18.0,778.00,1.1
2021-05-18,03:40:00,DRY,1.17,14.73,18.0,778.00,1.1
2021-05-18,03:45:00,DRY,1.75,15.00,17.5,778.00,1.1
2021-05-18,03:50:00,DRY,1.83,14.87,18.0,778.00,0.5
2021-05-18,03:55:00,DRY,2.20,15.15,17.5,778.00,0.5
2021-05-18,04:00:00,DRY,1.00,14.93,17.7,778.00,1.2
2021-05-18,04:05:00,DRY,1.50,14.75,18.0,778.00,1.1
2021-05-18,04:10:00,DRY,1.83,14.83,17.3,778.00,1.3
2021-05-18,04:15:00,DRY,1.95,14.80,18.0,778.00,1.5
2021-05-18,04:20:00,DRY,1.87,14.43,18.0,778.00,0.9
2021-05-18,04:25:00,DRY,2.95,14.75,18.0,778.00,1.0
2021-05-18,04:30:00,DRY,2.60,14.90,17.3,778.00,0.9
2021-05-18,04:35:00,DRY,2.85,14.95,17.5,778.00,1.8
2021-05-18,04:40:00,DRY,2.63,14.93,17.3,778.00,1.0
2021-05-18,04:45:00,DRY,1.20,14.75,18.0,778.00,1.3
2021-05-18,04:50:00,DRY,1.97,14.77,17.3,778.00,1.2
2021-05-18,04:55:00,DRY,1.40,14.65,18.0,778.00,0.3
2021-05-18,05:00:00,DRY,2.43,14.70,18.0,778.00,1.2
2021-05-18,05:05:00,DRY,1.55,14.70,18.5,778.00,0.6
2021-05-18,05:10:00,DRY,2.03,14.63,17.7,778.00,1.6
2021-05-18,05:15:00,DRY,1.15,14.60,18.0,778.00,0.8
2021-05-18,05:20:00,DRY,1.43,14.60,18.0,778.00,2.2
2021-05-18,05:25:00,DRY,1.60,14.70,18.5,778.00,1.7
2021-05-18,05:30:00,DRY,1.00,14.70,18.0,778.00,0.8
2021-05-18,05:35:00,DRY,0.90,14.60,18.5,778.00,0.8
2021-05-18,05:40:00,DRY,2.60,14.23,18.0,778.00,0.8
2021-05-18,05:45:00,DRY,2.20,14.20,17.5,778.00,0.8
2021-05-18,05:50:00,DRY,3.03,14.20,17.7,778.00,1.3
2021-05-18,05:55:00,DRY,3.00,14.20,18.0,778.00,0.8
2021-05-18,06:00:00,DRY,3.33,14.20,17.7,778.00,1.6
2021-05-18,06:05:00,DRY,2.20,14.35,17.5,778.00,1.0
2021-05-18,06:10:00,DRY,2.17,14.63,17.3,778.00,3.3
2021-05-18,06:15:00,DRY,2.45,14.60,18.0,778.00,3.2
2021-05-18,06:20:00,DRY,3.17,14.40,18.0,778.00,5.7
2021-05-18,06:25:00,DRY,4.05,14.20,17.0,778.00,8.2
2021-05-18,06:30:00,DRY,2.30,14.27,18.0,778.00,12.5
2021-05-18,06:35:00,DRY,3.05,14.40,18.0,778.00,21.6
2021-05-18,06:40:00,DRY,3.23,14.77,17.7,778.00,32.3
2021-05-18,06:45:00,DRY,2.00,15.20,17.5,778.00,46.3
2021-05-18,06:50:00,DRY,2.50,15.13,17.7,778.33,61.2
2021-05-18,06:55:00,DRY,4.10,14.75,18.0,779.00,78.1
2021-05-18,07:00:00,DRY,2.83,14.37,17.7,779.00,95.9
2021-05-18,07:05:00,DRY,2.00,14.30,17.5,779.00,113.8
2021-05-18,07:10:00,DRY,2.10,14.33,18.0,779.00,134.6
2021-05-18,07:15:00,DRY,1.90,14.45,18.0,779.00,153.2
2021-05-18,07:20:00,DRY,3.00,14.40,18.7,779.00,173.2
2021-05-18,07:25:00,DRY,3.05,14.35,18.5,779.00,192.8
2021-05-18,07:30:00,DRY,2.47,14.33,17.3,779.00,214.6
2021-05-18,07:35:00,DRY,3.25,14.35,16.0,779.00,237.4
2021-05-18,07:40:00,DRY,3.40,14.40,16.3,779.00,257.0
2021-05-18,07:45:00,DRY,4.00,14.50,16.5,779.00,279.6
2021-05-18,07:50:00,DRY,3.20,14.70,17.7,779.00,302.6
2021-05-18,07:55:00,DRY,2.40,14.70,17.5,779.00,325.2
2021-05-18,08:00:00,DRY,3.93,14.80,17.0,779.00,347.9
2021-05-18,08:05:00,DRY,4.15,14.95,17.5,779.00,372.4
2021-05-18,08:10:00,DRY,4.17,15.13,17.7,779.00,395.5
2021-05-18,08:15:00,DRY,4.95,15.20,17.5,779.00,418.7
2021-05-18,08:20:00,DRY,4.30,15.20,17.0,779.00,442.7
2021-05-18,08:25:00,DRY,3.60,15.20,18.0,779.00,461.4
2021-05-18,08:30:00,,,,,,
2021-05-18,08:35:00,,,,,,
2021-05-18,08:40:00,DRY,4.20,16.00,15.0,779.00,537.2
2021-05-18,08:45:00,DRY,3.15,16.10,18.0,779.00,550.2
2021-05-18,08:50:00,DRY,3.90,16.00,17.7,779.00,574.6
2021-05-18,08:55:00,DRY,4.35,15.85,18.0,779.00,596.4
2021-05-18,09:00:00,DRY,5.33,15.87,17.3,779.00,618.3
2021-05-18,09:05:00,DRY,4.85,16.00,17.5,779.00,639.5
2021-05-18,09:10:00,DRY,3.80,15.83,16.3,779.00,657.8
2021-05-18,09:15:00,DRY,3.30,16.05,16.5,779.00,679.8
2021-05-18,09:20:00,DRY,4.97,15.90,16.3,779.00,699.3
2021-05-18,09:25:00,DRY,5.00,15.90,16.5,779.00,718.0
2021-05-18,09:30:00,DRY,6.40,15.83,16.3,779.00,734.6
2021-05-18,09:35:00,DRY,5.15,16.05,16.0,779.00,754.5
2021-05-18,09:40:00,DRY,4.17,16.20,16.7,779.00,774.5
2021-05-18,09:45:00,DRY,3.65,16.50,16.0,779.00,792.6
2021-05-18,09:50:00,DRY,4.13,16.60,16.0,779.00,811.6
2021-05-18,09:55:00,DRY,4.25,16.45,16.0,779.00,830.5
2021-05-18,10:00:00,DRY,5.53,16.33,16.3,779.00,845.3
2021-05-18,10:05:00,DRY,4.75,16.85,16.5,779.00,866.2
2021-05-18,10:10:00,DRY,3.23,16.53,16.3,779.00,887.4
2021-05-18,10:15:00,DRY,5.45,16.60,17.0,779.00,893.9
2021-05-18,10:20:00,DRY,5.10,16.47,16.3,779.00,912.2
2021-05-18,10:25:00,DRY,5.10,16.55,16.5,779.00,925.1
2021-05-18,10:30:00,DRY,4.43,16.77,17.0,779.00,934.5
2021-05-18,10:35:00,DRY,4.60,16.60,17.0,779.00,949.8
2021-05-18,10:40:00,DRY,4.97,16.97,16.0,779.00,966.7
2021-05-18,10:45:00,DRY,3.80,16.60,17.5,779.00,977.1
2021-05-18,10:50:00,DRY,5.27,16.83,17.3,779.00,990.8
2021-05-18,10:55:00,DRY,6.05,17.15,17.5,779.00,1009.0
2021-05-18,11:00:00,DRY,4.90,17.23,17.0,779.00,1020.8
2021-05-18,11:05:00,DRY,3.40,17.30,17.0,779.00,1043.6
2021-05-18,11:10:00,DRY,5.03,17.33,17.3,779.00,1056.9
2021-05-18,11:15:00,DRY,4.45,17.40,18.0,779.00,1079.1
2021-05-18,11:20:00,DRY,4.43,17.50,17.7,779.00,1097.3
2021-05-18,11:25:00,DRY,5.60,17.45,16.5,779.00,910.2
2021-05-18,11:30:00,DRY,5.23,17.03,16.7,779.00,940.8
2021-05-18,11:35:00,DRY,3.65,17.00,18.0,779.00,997.3
2021-05-18,11:40:00,DRY,3.70,17.40,17.7,779.00,736.6
2021-05-18,11:45:00,DRY,5.10,16.50,17.0,779.00,466.5
2021-05-18,11:50:00,DRY,4.00,16.57,17.3,779.00,804.1
2021-05-18,11:55:00,DRY,4.15,16.80,17.5,779.00,1177.4
2021-05-18,12:00:00,DRY,3.70,17.33,17.7,779.00,1096.6
2021-05-18,12:05:00,DRY,5.35,17.65,17.0,779.00,1169.0
2021-05-18,12:10:00,DRY,5.20,17.40,16.3,779.00,1136.1
2021-05-18,12:15:00,DRY,7.40,17.45,16.5,779.00,948.7
2021-05-18,12:20:00,DRY,5.77,17.27,17.3,779.00,1063.8
2021-05-18,12:25:00,DRY,4.75,17.35,18.0,779.00,1013.0
2021-05-18,12:30:00,DRY,4.67,17.37,17.0,779.00,1077.3
2021-05-18,12:35:00,DRY,3.55,17.25,17.0,779.00,1142.8
2021-05-18,12:40:00,DRY,7.20,17.60,16.3,779.00,1110.5
2021-05-18,12:45:00,DRY,6.25,17.75,17.5,779.00,1177.3
2021-05-18,12:50:00,DRY,5.63,17.80,15.7,779.00,1179.3
2021-05-18,12:55:00,DRY,5.00,17.40,16.0,779.00,1176.4
2021-05-18,13:00:00,DRY,6.80,17.50,16.3,779.00,1077.7
2021-05-18,13:05:00,DRY,4.60,17.20,17.0,779.00,1066.4
2021-05-18,13:10:00,DRY,6.70,17.53,17.0,779.00,1060.2
2021-05-18,13:15:00,DRY,7.90,17.00,17.0,779.00,981.5
2021-05-18,13:20:00,DRY,4.87,17.30,17.3,779.00,892.3
2021-05-18,13:25:00,DRY,5.30,17.25,17.0,779.00,1030.9
2021-05-18,13:30:00,DRY,4.30,17.15,17.0,779.00,1070.8
2021-05-18,13:35:00,DRY,8.70,17.50,17.0,779.00,1209.0
2021-05-18,13:40:00,DRY,7.27,17.43,17.7,779.00,1211.4
2021-05-18,13:45:00,DRY,5.10,17.80,17.0,779.00,1169.1
2021-05-18,13:50:00,DRY,5.20,17.53,17.0,779.00,730.3
2021-05-18,13:55:00,DRY,6.35,17.10,17.0,779.00,720.3
2021-05-18,14:00:00,DRY,5.63,17.00,18.0,778.33,746.2
2021-05-18,14:05:00,DRY,5.95,17.05,18.0,778.50,769.5
2021-05-18,14:10:00,DRY,4.57,17.03,17.7,778.00,1143.4
2021-05-18,14:15:00,DRY,6.15,17.50,18.0,778.50,1210.2
2021-05-18,14:20:00,DRY,7.00,17.40,17.7,778.00,1170.6
2021-05-18,14:25:00,DRY,4.85,17.55,17.5,778.00,1161.7
2021-05-18,14:30:00,DRY,6.07,17.37,17.0,778.00,1143.1
2021-05-18,14:35:00,DRY,6.85,17.75,17.5,778.00,1193.5
2021-05-18,14:40:00,DRY,7.07,17.60,16.7,778.00,1175.7